Regional Weather Roundup
Issued by NWS

Home | Current Version | Previous Version | Text Only | Print | Product List | Glossary Off
Versions: 1 2 3 4 5 6 7 8 9 10 11 12 13 14 15 16 17 18 19 20 21 22 23 24 25 26 27 28 29 30 31 32 33 34 35 36 37 38 39 40 41 42 43 44 45 46 47 48 49 50

000
ASUS43 KMPX 141810
RWRMN
WEATHER ROUNDUP FOR MINNESOTA
NATIONAL WEATHER SERVICE TWIN CITIES/CHANHASSEN MN
1200 PM CST SUN FEB 14 2016


NOTE: "FAIR" INDICATES FEW OR NO CLOUDS BELOW 12,000 FEET WITH NO
SIGNIFICANT WEATHER AND/OR OBSTRUCTIONS TO VISIBILITY. N/A MEANS
CURRENT SKY AND/OR WEATHER CONDITIONS ARE NOT AVAILABLE.

MNZ060>063-068>070-141900-
   Twin Cities Metro

CITY           SKY/WX    TMP DP  RH WIND       PRES   REMARKS
TWIN CITIES    LGT SNOW  18  11  74 SE14      30.01F WCI   4
6HR MIN TEMP:  11; 6HR MAX TEMP:  18; 6HR PCP:  0.01;

ST PAUL        LGT SNOW  18  11  74 SE17      30.03F WCI   3
CRYSTAL        LGT SNOW  18  10  71 S17       29.99F WCI   3
BLAINE         FLURRIES  18  10  73 SE14G22   30.00F WCI   4
LAKEVILLE      LGT SNOW  16  10  79 SE13G18   29.99F WCI   2
EDEN PRAIRIE   CLOUDY    19  10  68 S14       29.99F WCI   6
6HR MIN TEMP:  12; 6HR MAX TEMP:  19; 6HR PCP: TRACE;

SOUTH ST PAUL  LGT SNOW  18  11  72 SE10G17   30.02F WCI   6
LAKE ELMO      LGT SNOW  18  12  79 SE9       30.03F WCI   6
$$
MNZ001>005-007-008-013>017-022>024-027-028-141900-
   Northwest Minnesota

CITY           SKY/WX    TMP DP  RH WIND       PRES   REMARKS
BEMIDJI        LGT SNOW  10   6  82 SE13      29.83F WCI  -5
HALLOCK        LGT SNOW  16  12  86 S23       29.76F VSB 3/4 WCI  -2
ROSEAU         LGT SNOW  16   9  73 S16       29.79F WCI   0
WARROAD        LGT SNOW  12   9  85 S13       29.81F VSB 1   WCI  -3
THIEF RVR FALL CLOUDY    14   7  73 S18       29.79F WCI  -3
CROOKSTON      LGT SNOW  16  12  86 S26       29.81F WCI  -3
FOSSTON        CLOUDY    14   7  73 S15G21    29.81F HAZE    WCI  -1
DETROIT LAKES  LGT SNOW  16  12  86 S16       29.82S WCI   0
MOORHEAD       MIX PCPN  16  10  79 S23       29.83F WCI  -2
PARK RAPIDS    LGT SNOW  13   7  77 S20       29.84F WCI  -5
MAHNOMEN       CLOUDY    14  10  82 S13       29.81F HAZE    WCI   0
$$
MNZ006-009>011-018-025>026-141900-
   North Central Minnesota

CITY           SKY/WX    TMP DP  RH WIND       PRES   REMARKS
BAUDETTE       LGT SNOW  12   5  73 S14       29.82F VSB 1   WCI  -3
FLAG ISLAND    LGT SNOW  10   9  92 S18       29.81F WCI  -8
INTL FALLS     CLOUDY    11   1  64 S8        29.88F HAZE    WCI  -1
6HR MIN TEMP:   1; 6HR MAX TEMP:  11; 6HR PCP: TRACE;

WASKISH        LGT SNOW  10   7  85 SE8       29.85F VSB 3/4 WCI  -1
BIG FORK       CLOUDY    10   3  72 S7        29.89F WCI   0
LONGVILLE      LGT SNOW  12   5  73 SE14G20   29.89F WCI  -3
GRAND RAPIDS   CLOUDY    10   3  72 SE9       29.91F WCI  -2
ORR            CLOUDY    10   0  61 S9G18     29.90F WCI  -2
COOK           FLURRIES  12   1  62 S13G18    29.93F WCI  -3
WALKER         LGT SNOW  10   5  79 SE10G17   29.85F VSB 1   WCI  -4
$$
MNZ012-019>021-037-141900-
   Northeast Minnesota

CITY           SKY/WX    TMP DP  RH WIND       PRES   REMARKS
DULUTH         LGT SNOW  10   0  63 S12       29.98F WCI  -5
6HR MIN TEMP:   1; 6HR MAX TEMP:  10; 6HR PCP: TRACE;

ELY            CLOUDY    16   3  57 S9        29.94F WCI   4
HIBBING        LGT SNOW   9   3  77 S10       29.94F WCI  -5
EVELETH        FLURRIES  14   5  67 S13       29.95F WCI   0
DULUTH HARBOR  FLURRIES  16   5  62 S8        30.07F WCI   5
TWO HARBORS    FLURRIES  16   3  57 S8        30.01F WCI   5
SILVER BAY     CLOUDY    14  -2  48 S8        30.01F WCI   3
GRAND MARAIS     N/A     19   7  59 SW16      30.10F WCI   4
G MARAIS ARPRT SUNNY     14   0  52 S9G20     29.99F WCI   2
$$
MNZ029>031-032-039>041-046>048-054>057-064-141900-
   West Central Minnesota

CITY           SKY/WX    TMP DP  RH WIND       PRES   REMARKS
FERGUS FALLS   CLOUDY    16  10  79 S20       29.87F FOG     WCI  -1
MORRIS         LGT SNOW  18  12  79 S18       29.85F WCI   2
ALEXANDRIA     SNOW      15  10  80 S18       29.85F VSB 1/2 WCI  -2
ELBOW LAKE     CLOUDY    15  11  86 S18       29.85F FOG     WCI  -2
WADENA         LGT SNOW  12   7  79 SE15      29.85F VSB 3/4 WCI  -4
GLENWOOD       LGT SNOW  16  10  79 SE17      29.88S WCI   0
APPLETON       CLOUDY    18  12  79 S15       29.87F WCI   3
BENSON         LGT SNOW  18  12  79 S14G21    29.88F WCI   4
ORTONVILLE     CLOUDY    18  10  73 S14       29.85F WCI   4
MADISON        CLOUDY    19  12  73 S16       29.87F WCI   5
WILLMAR        LGT SNOW  19  16  86 SE16      29.91F WCI   5
$$
MNZ033>034-036-042>043-049>051-058-059-141900-
   Central Minnesota

CITY           SKY/WX    TMP DP  RH WIND       PRES   REMARKS
ST CLOUD       CLOUDY    16   9  74 SE17G23   29.94F WCI   0
6HR MIN TEMP:  10; 6HR MAX TEMP:  16; 6HR PCP: TRACE;

SAUK CENTRE    LGT SNOW  15  11  85 SE13G18   29.89F WCI   1
PAYNESVILLE    LGT SNOW  17  11  78 SE16G22   29.91F WCI   1
AITKIN         MIX PCPN  14   3  62 S15G22    29.92F WCI  -1
PINE RIVER     LGT SNOW  10   7  85 SE14      29.92F WCI  -5
BRAINERD       LGT SNOW  13   7  77 S13       29.91F WCI  -2
STAPLES        LGT SNOW  12   9  85 SE9       29.87F WCI   0
LONG PRAIRIE   LGT SNOW  14  10  85 SE14      29.88F WCI  -1
LITTLE FALLS   LGT SNOW  16   9  73 SE15      29.93F WCI   1
LITCHFIELD     MIX PCPN  18  14  86 SE9G17    29.93F WCI   6
BUFFALO        CLOUDY    18  10  70 SE14      29.98F WCI   5
MAPLE LAKE     LGT SNOW  18  13  79 SE9G18    29.96F WCI   7
$$
MNZ037-044-045-052-053-141900-
   East Central Minnesota

CITY           SKY/WX    TMP DP  RH WIND       PRES   REMARKS
PRINCETON      CLOUDY    19  10  68 SE14      29.97F WCI   6
MORA           CLOUDY    14   5  67 SE9       30.00F WCI   2
CAMBRIDGE      FLURRIES  19   9  63 SE14G20   29.97F WCI   6
RUSH CITY      CLOUDY    16   6  65 SE10      30.01F WCI   4
MOOSE LAKE     LGT SNOW  14   5  67 S7        29.98F WCI   4
HINCKLEY       CLOUDY    16   5  62 SE8       30.00F WCI   5
CLOQUET        LGT SNOW  12   5  73 SE9       29.97F WCI   0
MCGREGOR       CLOUDY    14   9  79 S13       29.95F WCI   0
$$
MNZ071>073-080-081-089-090-097-098-141900-
   Southwest Minnesota

CITY           SKY/WX    TMP DP  RH WIND       PRES   REMARKS
MONTEVIDEO     LGT SNOW  19  12  73 S12G18    29.89F WCI   7
GRANITE FALLS  CLOUDY    21  16  80 SE15      29.91F WCI   8
CANBY          CLOUDY    22  16  75 S9        29.86F WCI  12
MARSHALL       FLURRIES  20  12  71 S16       29.87F WCI   6
REDWOOD FALLS  LGT SNOW  18  13  80 SE18      29.91F WCI   2
OLIVIA         LGT SNOW  21  16  79 SE14      29.90F WCI   8
PIPESTONE      CLOUDY    19  10  68 S13       29.81F WCI   7
WINDOM         FLURRIES  18  12  79 SE10      29.87F WCI   6
WORTHINGTON    CLOUDY    16  10  79 S13       29.85F WCI   2
JACKSON        FLURRIES  19  12  73 S10G17    29.87F WCI   8
TRACY          SUNNY     20  14  77 S13       29.86F WCI   7
SLAYTON        CLOUDY    17  14  88 S14       29.84F WCI   3
$$
MNZ065>067-074>077-082>085-091>093-141900-
   South Central Minnesota

CITY           SKY/WX    TMP DP  RH WIND       PRES   REMARKS
MANKATO        CLOUDY    18  12  79 SE18G24   29.95F WCI   2
NEW ULM        LGT SNOW  18  12  79 SE12      29.93F WCI   5
ST JAMES       LGT SNOW  19  16  86 SE15      29.93F WCI   5
FAIRMONT       CLOUDY    18  10  73 SE20      29.89F WCI   1
GLENCOE        LGT SNOW  19  15  82 SE15      29.95F WCI   5
FARIBAULT      CLOUDY    18  10  73 SE14G20   29.99F WCI   4
OWATONNA       LGT SNOW  18  10  73 SE22      29.96F WCI   0
WASECA         LGT SNOW  18  12  79 SE16      29.97F WCI   3
ALBERT LEA     LGT SNOW  18  12  79 SE18      29.94F WCI   2
$$
MNZ078>079-086>088-094>096-141900-
   Southeast Minnesota

CITY           SKY/WX    TMP DP  RH WIND       PRES   REMARKS
ROCHESTER      LGT SNOW  16  10  77 SE22      29.97F WCI  -2
6HR MIN TEMP:   9; 6HR MAX TEMP:  16; 6HR PCP:  0.01;

RED WING       CLOUDY    18  10  73 SE13G21   30.04F WCI   4
STANTON        LGT SNOW  19  10  70 SE14G22   29.99F WCI   5
DODGE CENTER   LGT SNOW  16  10  79 SE21      29.96F WCI  -2
WINONA         LGT SNOW  18  12  79 SE10      30.08F WCI   6
AUSTIN         LGT SNOW  16  12  86 SE14      29.96F WCI   1
PRESTON        LGT SNOW  15   9  77 SE17G23   30.00F WCI  -1
$$
ABBREVIATIONS USED IN REMARKS
   TC - TEMPERATURES IN CELSIUS
  WCI - WIND CHILL INDEX
   HX - HEAT INDEX
  VSB - VISIBILITY
$$



USA.gov is the U.S. government's official web portal to all federal, state and local government web resources and services.